When you browse on this site, cookies collect data to enhance your experience and personalize the content and advertising you see.
Visit our Privacy Policy to learn more. By continuing to use the site, you agree to this use of cookies and data.
  • In Hungary
  • List of Countries
  • For 7 days
  • Water Temperature
  • Weather Map
  • News
  • Weather Widgets
  • user-avatar
    Login

    Hourly Weather Borovec

    Today, 30 May, Saturday

    Time Temperature Precipitation Wind Pressure Humidity
    00:00 +9°C° 0 mm 1 mps 709 mmHg 91%
    01:00 +9°C° 0 mm 1 mps 709 mmHg 91%
    02:00 +8°C° 0 mm 2 mps 709 mmHg 92%
    03:00 +8°C° 0 mm 2 mps 709 mmHg 91%
    04:00 +9°C° 0 mm 1 mps 709 mmHg 91%
    05:00 +9°C° 0 mm 1 mps 709 mmHg 90%
    06:00 +9°C° 0 mm 2 mps 709 mmHg 87%
    07:00 +12°C° 0 mm 2 mps 710 mmHg 83%
    08:00 +13°C° 0 mm 2 mps 710 mmHg 80%
    09:00 +14°C° 0 mm 2 mps 710 mmHg 74%
    10:00 +14°C° 0 mm 3 mps 710 mmHg 68%
    11:00 +16°C° 0 mm 3 mps 709 mmHg 62%
    12:00 +17°C° 0.1 mm 3 mps 709 mmHg 59%
    13:00 +18°C° 0.1 mm 3 mps 709 mmHg 56%
    14:00 +19°C° 0.1 mm 3 mps 709 mmHg 52%
    15:00 +19°C° 0.2 mm 3 mps 708 mmHg 55%
    16:00 +19°C° 0.2 mm 2 mps 708 mmHg 58%
    17:00 +18°C° 0.2 mm 2 mps 708 mmHg 61%
    18:00 +16°C° 0.4 mm 2 mps 708 mmHg 68%
    19:00 +15°C° 0.4 mm 1 mps 708 mmHg 75%
    20:00 +13°C° 0.4 mm 1 mps 707 mmHg 82%
    21:00 +12°C° 0.1 mm 1 mps 708 mmHg 83%
    22:00 +12°C° 0.1 mm 1 mps 708 mmHg 84%
    23:00 +11°C° 0.1 mm 1 mps 708 mmHg 85%

    Tomorrow, 31 May, Sunday

    Time Temperature Precipitation Wind Pressure Humidity
    00:00 +11°C° 0 mm 1 mps 708 mmHg 85%
    01:00 +11°C° 0 mm 1 mps 708 mmHg 86%
    02:00 +10°C° 0 mm 1 mps 708 mmHg 87%
    03:00 +10°C° 0 mm 1 mps 708 mmHg 88%
    04:00 +10°C° 0 mm 1 mps 708 mmHg 88%
    05:00 +10°C° 0 mm 1 mps 708 mmHg 88%
    06:00 +11°C° 0 mm 1 mps 708 mmHg 85%
    07:00 +13°C° 0 mm 2 mps 708 mmHg 81%
    08:00 +14°C° 0 mm 2 mps 708 mmHg 78%
    09:00 +14°C° 0.1 mm 3 mps 708 mmHg 73%
    10:00 +16°C° 0.1 mm 3 mps 708 mmHg 69%
    11:00 +17°C° 0.1 mm 4 mps 708 mmHg 64%
    12:00 +18°C° 0.3 mm 4 mps 708 mmHg 63%
    13:00 +18°C° 0.3 mm 4 mps 707 mmHg 62%
    14:00 +18°C° 0.3 mm 4 mps 707 mmHg 61%
    15:00 +18°C° 0.5 mm 4 mps 707 mmHg 63%
    16:00 +18°C° 0.5 mm 3 mps 706 mmHg 65%
    17:00 +17°C° 0.5 mm 3 mps 706 mmHg 67%
    18:00 +16°C° 0.3 mm 3 mps 706 mmHg 72%
    19:00 +14°C° 0.3 mm 2 mps 706 mmHg 77%
    20:00 +13°C° 0.3 mm 1 mps 707 mmHg 81%
    21:00 +12°C° 0.1 mm 1 mps 707 mmHg 83%
    22:00 +11°C° 0.1 mm 1 mps 707 mmHg 85%
    23:00 +11°C° 0.1 mm 1 mps 707 mmHg 87%

    Day after tomorrow, 1 June, Monday

    Time Temperature Precipitation Wind Pressure Humidity
    00:00 +10°C° 0 mm 1 mps 707 mmHg 88%
    01:00 +9°C° 0 mm 1 mps 707 mmHg 89%
    02:00 +8°C° 0 mm 2 mps 706 mmHg 90%
    03:00 +8°C° 0 mm 1 mps 706 mmHg 90%
    04:00 +8°C° 0 mm 1 mps 706 mmHg 90%
    05:00 +7°C° 0 mm 1 mps 705 mmHg 90%
    06:00 +9°C° 0 mm 1 mps 706 mmHg 85%
    07:00 +10°C° 0 mm 2 mps 706 mmHg 80%
    08:00 +13°C° 0 mm 2 mps 706 mmHg 75%
    09:00 +13°C° 0 mm 2 mps 706 mmHg 72%
    10:00 +13°C° 0 mm 3 mps 706 mmHg 69%
    11:00 +14°C° 0 mm 3 mps 707 mmHg 66%
    12:00 +14°C° 0.2 mm 4 mps 706 mmHg 67%
    13:00 +14°C° 0.2 mm 4 mps 706 mmHg 68%
    14:00 +14°C° 0.2 mm 5 mps 706 mmHg 70%
    15:00 +14°C° 0.1 mm 4 mps 706 mmHg 72%
    16:00 +13°C° 0.1 mm 4 mps 705 mmHg 74%
    17:00 +13°C° 0.1 mm 3 mps 705 mmHg 76%
    18:00 +12°C° 0 mm 3 mps 705 mmHg 80%
    19:00 +12°C° 0 mm 2 mps 705 mmHg 84%
    20:00 +10°C° 0 mm 2 mps 705 mmHg 89%
    21:00 +11°C° 0.1 mm 1 mps 705 mmHg 90%
    22:00 +11°C° 0.1 mm 1 mps 705 mmHg 91%
    23:00 +11°C° 0.1 mm 1 mps 705 mmHg 92%

    2 June, Tuesday

    Time Temperature Precipitation Wind Pressure Humidity
    00:00 +11°C° 0.1 mm 1 mps 705 mmHg 92%
    01:00 +11°C° 0.1 mm 1 mps 705 mmHg 93%
    02:00 +11°C° 0.1 mm 1 mps 705 mmHg 93%
    03:00 +11°C° 0.1 mm 1 mps 705 mmHg 94%
    04:00 +10°C° 0.1 mm 1 mps 705 mmHg 94%
    05:00 +10°C° 0.1 mm 1 mps 705 mmHg 95%
    06:00 +10°C° 0.2 mm 2 mps 705 mmHg 92%
    07:00 +12°C° 0.2 mm 2 mps 706 mmHg 90%
    08:00 +11°C° 0.2 mm 3 mps 706 mmHg 87%
    09:00 +11°C° 0.4 mm 3 mps 706 mmHg 86%
    10:00 +11°C° 0.4 mm 3 mps 706 mmHg 86%
    11:00 +11°C° 0.4 mm 3 mps 706 mmHg 85%
    12:00 +11°C° 0.3 mm 3 mps 706 mmHg 84%
    13:00 +11°C° 0.3 mm 3 mps 706 mmHg 83%
    14:00 +12°C° 0.3 mm 3 mps 706 mmHg 82%
    15:00 +12°C° 0.1 mm 3 mps 706 mmHg 78%
    16:00 +13°C° 0.1 mm 3 mps 706 mmHg 74%
    17:00 +14°C° 0.1 mm 3 mps 706 mmHg 70%
    18:00 +12°C° 0.1 mm 3 mps 706 mmHg 75%
    19:00 +12°C° 0.1 mm 2 mps 706 mmHg 80%
    20:00 +9°C° 0.1 mm 2 mps 706 mmHg 85%
    21:00 +9°C° 0 mm 2 mps 706 mmHg 86%
    22:00 +8°C° 0 mm 2 mps 706 mmHg 87%
    23:00 +8°C° 0 mm 1 mps 706 mmHg 89%

    3 June, Wednesday

    Time Temperature Precipitation Wind Pressure Humidity
    00:00 +7°C° 0 mm 1 mps 706 mmHg 89%
    01:00 +7°C° 0 mm 1 mps 706 mmHg 90%
    02:00 +6°C° 0 mm 1 mps 705 mmHg 90%
    03:00 +6°C° 0 mm 1 mps 705 mmHg 90%
    04:00 +6°C° 0 mm 1 mps 705 mmHg 91%
    05:00 +6°C° 0 mm 1 mps 705 mmHg 91%
    06:00 +7°C° 0 mm 1 mps 705 mmHg 85%
    07:00 +8°C° 0 mm 2 mps 706 mmHg 78%
    08:00 +10°C° 0 mm 2 mps 706 mmHg 72%
    09:00 +12°C° 0 mm 2 mps 706 mmHg 64%
    10:00 +13°C° 0 mm 3 mps 706 mmHg 56%
    11:00 +14°C° 0 mm 3 mps 706 mmHg 49%
    12:00 +16°C° 0 mm 3 mps 706 mmHg 47%
    13:00 +17°C° 0 mm 3 mps 706 mmHg 45%
    14:00 +18°C° 0 mm 3 mps 705 mmHg 44%
    15:00 +17°C° 0 mm 4 mps 705 mmHg 46%
    16:00 +17°C° 0 mm 4 mps 705 mmHg 49%
    17:00 +17°C° 0 mm 4 mps 705 mmHg 51%
    18:00 +14°C° 0 mm 3 mps 705 mmHg 59%
    19:00 +13°C° 0 mm 2 mps 705 mmHg 67%
    20:00 +11°C° 0 mm 1 mps 705 mmHg 75%
    21:00 +9°C° 0 mm 0 mps 705 mmHg 75%
    22:00 +9°C° 0 mm 0 mps 705 mmHg 74%
    23:00 +9°C° 0 mm 0 mps 706 mmHg 74%

    4 June, Thursday

    Time Temperature Precipitation Wind Pressure Humidity
    00:00 +9°C° 0 mm 0 mps 706 mmHg 74%
    01:00 +9°C° 0 mm 0 mps 706 mmHg 74%
    02:00 +9°C° 0 mm 0 mps 705 mmHg 74%
    03:00 +9°C° 0 mm 0 mps 705 mmHg 74%
    04:00 +9°C° 0 mm 0 mps 705 mmHg 75%
    05:00 +9°C° 0 mm 0 mps 705 mmHg 75%
    06:00 +10°C° 0.2 mm 0 mps 706 mmHg 77%
    07:00 +11°C° 0.2 mm 0 mps 706 mmHg 79%
    08:00 +11°C° 0.2 mm 0 mps 706 mmHg 81%
    09:00 +11°C° 0.4 mm 0 mps 706 mmHg 84%
    10:00 +13°C° 0.4 mm 1 mps 706 mmHg 87%
    11:00 +13°C° 0.4 mm 1 mps 706 mmHg 91%
    12:00 +13°C° 0.3 mm 1 mps 706 mmHg 89%
    13:00 +14°C° 0.3 mm 1 mps 706 mmHg 88%
    14:00 +14°C° 0.3 mm 1 mps 706 mmHg 86%
    15:00 +15°C° 0 mm 2 mps 706 mmHg 81%
    16:00 +16°C° 0 mm 2 mps 706 mmHg 76%
    17:00 +17°C° 0 mm 2 mps 707 mmHg 71%
    18:00 +16°C° 0.1 mm 2 mps 706 mmHg 77%
    19:00 +15°C° 0.1 mm 1 mps 706 mmHg 83%
    20:00 +13°C° 0.1 mm 1 mps 706 mmHg 90%
    21:00 +12°C° 0 mm 1 mps 706 mmHg 90%
    22:00 +12°C° 0 mm 1 mps 706 mmHg 91%
    23:00 +11°C° 0 mm 1 mps 707 mmHg 92%
    Show more